contact:dominique.lefevre@mio.osupytheas.fr, maurice.libes@osupytheas.fr, didier.mallarino@osupytheas.fr
Project:EMSO http://www.emso-fr.org/EMSO-France
Depth: 2436.0 m
Title:EMSO Ligure Ouest : Data MII capteur AQUADOPP
Date,Latitude,Longitude,X_East,Y_North,Z_Up,Amplitude_X,Amplitude_Y,Amplitude_Z,Batterie,SoundSpeed,Heading,Pitch,Roll,Pressure,TIS,Speed,Direction
, degrees North, degrees East, m.s-1, m.s-1,m.s-1, 1, 1, 1, Volt, m.s-1, degree, degree, degree, dbar, degree_C, m.s-1, degree
2020-08-22T00:04:03,42.805,6.029,0.028,-0.013,-0.039,104.0,105.0,102.0,13.4,1505.3,323.1,-0.7,1.8,2470.509,13.31,0.03,114.9
2020-08-22T00:07:03,42.805,6.029,0.028,-0.041,-0.019,104.0,105.0,101.0,13.3,1505.3,325.7,-0.7,1.8,2470.476,13.31,0.049,145.7
2020-08-22T00:10:03,42.805,6.029,0.016,-0.03,-0.03,104.0,104.0,102.0,13.3,1505.3,327.7,-0.7,1.8,2470.477,13.32,0.034,151.9
2020-08-22T00:13:03,42.805,6.029,0.06,-0.014,0.031,103.0,106.0,101.0,13.3,1505.3,324.2,-0.7,1.8,2470.477,13.32,0.061,103.1
2020-08-22T00:16:03,42.805,6.029,0.04,-0.012,0.027,105.0,105.0,100.0,13.4,1505.3,328.0,-0.7,1.8,2470.451,13.32,0.041,106.7
2020-08-22T00:19:03,42.805,6.029,0.013,-0.012,-0.017,104.0,106.0,101.0,13.4,1505.3,326.8,-0.7,1.8,2470.488,13.32,0.017,132.7
2020-08-22T00:22:03,42.805,6.029,0.029,-0.015,0.024,105.0,106.0,102.0,13.4,1505.3,328.3,-0.7,1.8,2470.456,13.32,0.032,117.4
2020-08-22T00:25:03,42.805,6.029,0.003,-0.028,0.004,104.0,106.0,102.0,13.3,1505.3,324.0,-0.7,1.8,2470.457,13.32,0.028,173.9
2020-08-22T00:28:03,42.805,6.029,0.016,0.0,-0.023,104.0,106.0,101.0,13.4,1505.3,326.5,-0.7,1.8,2470.431,13.32,0.016,90.0
2020-08-22T00:31:03,42.805,6.029,0.027,-0.026,0.014,103.0,105.0,102.0,13.3,1505.3,326.6,-0.7,1.9,2470.388,13.32,0.037,133.9
2020-08-22T00:34:03,42.805,6.029,0.008,-0.022,0.006,105.0,107.0,100.0,13.4,1505.3,324.6,-0.7,1.8,2470.471,13.32,0.023,160.0
2020-08-22T00:37:03,42.805,6.029,0.025,-0.016,0.001,105.0,106.0,103.0,13.4,1505.3,323.4,-0.7,1.8,2470.457,13.33,0.029,122.6
2020-08-22T00:40:03,42.805,6.029,0.03,-0.02,-0.005,104.0,105.0,102.0,13.4,1505.3,327.5,-0.7,1.8,2470.452,13.33,0.036,123.7
2020-08-22T00:43:03,42.805,6.029,0.026,-0.026,-0.003,106.0,106.0,102.0,13.4,1505.3,326.1,-0.7,1.8,2470.442,13.33,0.036,135.0
2020-08-22T00:46:03,42.805,6.029,0.033,-0.018,0.008,106.0,105.0,101.0,13.3,1505.3,323.2,-0.7,1.8,2470.426,13.33,0.037,118.6
2020-08-22T00:49:03,42.805,6.029,0.021,-0.033,-0.019,105.0,104.0,102.0,13.4,1505.3,325.9,-0.7,1.9,2470.409,13.32,0.039,147.5
2020-08-22T00:52:03,42.805,6.029,0.01,-0.018,-0.02,104.0,105.0,101.0,13.4,1505.3,327.0,-0.7,1.8,2470.423,13.32,0.02,150.9
2020-08-22T00:55:03,42.805,6.029,0.012,-0.006,-0.012,103.0,105.0,102.0,13.3,1505.3,326.8,-0.7,1.8,2470.412,13.32,0.013,116.6
2020-08-22T00:58:03,42.805,6.029,0.033,-0.005,-0.002,104.0,104.0,101.0,13.4,1505.3,325.7,-0.7,1.8,2470.419,13.32,0.033,98.6
2020-08-22T01:04:03,42.805,6.029,0.027,-0.032,-0.006,104.0,106.0,103.0,13.4,1505.3,324.2,-0.7,1.8,2470.428,13.31,0.041,139.8
2020-08-22T01:07:03,42.805,6.029,-0.001,-0.037,0.005,103.0,106.0,101.0,13.4,1505.3,326.4,-0.7,1.8,2470.431,13.31,0.037,181.5
2020-08-22T01:10:03,42.805,6.029,0.065,-0.01,0.02,104.0,105.0,101.0,13.4,1505.3,326.4,-0.7,1.8,2470.441,13.32,0.065,98.7
2020-08-22T01:13:03,42.805,6.029,0.044,-0.036,0.0,103.0,104.0,102.0,13.3,1505.3,324.1,-0.7,1.8,2470.449,13.32,0.056,129.3
2020-08-22T01:16:03,42.805,6.029,0.027,-0.015,-0.013,105.0,105.0,101.0,13.4,1505.3,323.0,-0.7,1.8,2470.414,13.32,0.03,119.1
2020-08-22T01:19:03,42.805,6.029,0.034,-0.007,0.014,103.0,105.0,101.0,13.3,1505.3,326.0,-0.7,1.8,2470.438,13.32,0.034,101.6
2020-08-22T01:22:03,42.805,6.029,0.047,-0.003,0.006,103.0,107.0,102.0,13.3,1505.3,324.3,-0.7,1.8,2470.422,13.32,0.047,93.6
2020-08-22T01:25:03,42.805,6.029,0.047,-0.018,0.001,103.0,106.0,101.0,13.3,1505.3,325.6,-0.7,1.8,2470.392,13.32,0.05,111.0
2020-08-22T01:28:03,42.805,6.029,0.036,-0.025,-0.005,102.0,106.0,101.0,13.4,1505.3,327.6,-0.7,1.8,2470.37,13.32,0.043,124.8
2020-08-22T01:31:03,42.805,6.029,0.039,-0.018,0.061,103.0,105.0,102.0,13.4,1505.3,323.0,-0.7,1.8,2470.409,13.32,0.042,114.8
2020-08-22T01:34:03,42.805,6.029,0.044,-0.018,0.0,103.0,105.0,101.0,13.3,1505.3,326.7,-0.7,1.8,2470.384,13.32,0.047,112.2
2020-08-22T01:37:03,42.805,6.029,0.018,-0.031,-0.019,106.0,103.0,100.0,13.4,1505.3,326.6,-0.8,1.8,2470.369,13.32,0.035,149.9
2020-08-22T01:40:03,42.805,6.029,0.041,-0.015,0.021,102.0,107.0,101.0,13.4,1505.3,325.3,-0.7,1.8,2470.437,13.32,0.043,110.1
2020-08-22T01:43:03,42.805,6.029,0.011,-0.022,-0.05,105.0,105.0,101.0,13.4,1505.3,324.6,-0.7,1.8,2470.357,13.32,0.024,153.4
2020-08-22T01:46:03,42.805,6.029,0.042,-0.032,-0.016,104.0,105.0,101.0,13.3,1505.3,326.8,-0.7,1.9,2470.395,13.32,0.052,127.3
2020-08-22T01:49:03,42.805,6.029,0.059,-0.01,-0.002,104.0,105.0,102.0,13.4,1505.3,326.4,-0.7,1.8,2470.425,13.32,0.059,99.6
2020-08-22T01:52:03,42.805,6.029,0.019,-0.036,-0.004,106.0,107.0,100.0,13.3,1505.3,326.4,-0.7,1.8,2470.381,13.32,0.04,152.2
2020-08-22T01:55:03,42.805,6.029,0.027,-0.028,-0.014,104.0,105.0,101.0,13.4,1505.3,325.4,-0.7,1.8,2470.385,13.32,0.038,136.0
2020-08-22T01:58:03,42.805,6.029,0.024,-0.007,-0.004,104.0,105.0,101.0,13.4,1505.3,325.2,-0.7,1.8,2470.361,13.32,0.025,106.3
2020-08-22T02:04:03,42.805,6.029,0.025,-0.023,0.007,104.0,106.0,102.0,13.4,1505.2,326.9,-0.7,1.8,2470.404,13.3,0.033,132.6
2020-08-22T02:07:03,42.805,6.029,0.03,-0.016,0.005,105.0,105.0,102.0,13.4,1505.3,326.5,-0.7,1.8,2470.405,13.31,0.034,118.1
2020-08-22T02:10:03,42.805,6.029,0.055,-0.028,0.004,104.0,105.0,101.0,13.3,1505.3,324.0,-0.7,1.8,2470.393,13.32,0.061,117.0
2020-08-22T02:13:03,42.805,6.029,0.007,-0.017,-0.027,105.0,106.0,101.0,13.4,1505.3,328.0,-0.7,1.8,2470.39,13.32,0.018,157.6
2020-08-22T02:16:03,42.805,6.029,0.024,-0.024,0.0,104.0,105.0,101.0,13.3,1505.3,327.0,-0.7,1.8,2470.303,13.32,0.033,135.0
2020-08-22T02:19:03,42.805,6.029,0.034,-0.022,-0.037,105.0,106.0,100.0,13.4,1505.3,325.0,-0.7,1.8,2470.31,13.32,0.04,122.9
2020-08-22T02:22:03,42.805,6.029,0.018,-0.037,-0.013,104.0,105.0,101.0,13.4,1505.3,325.0,-0.7,1.9,2470.346,13.32,0.041,154.1
2020-08-22T02:25:03,42.805,6.029,0.009,-0.016,-0.009,103.0,104.0,101.0,13.4,1505.3,325.8,-0.7,1.8,2470.337,13.32,0.018,150.6
2020-08-22T02:28:03,42.805,6.029,0.039,-0.045,-0.014,104.0,104.0,101.0,13.4,1505.3,326.2,-0.7,1.8,2470.371,13.32,0.059,139.1
2020-08-22T02:31:03,42.805,6.029,0.046,-0.038,0.001,102.0,106.0,101.0,13.4,1505.3,325.8,-0.7,1.8,2470.35,13.32,0.059,129.6
2020-08-22T02:34:03,42.805,6.029,0.018,-0.014,-0.039,104.0,105.0,101.0,13.3,1505.3,324.9,-0.7,1.8,2470.351,13.32,0.022,127.9
2020-08-22T02:37:03,42.805,6.029,0.044,-0.019,0.012,105.0,105.0,101.0,13.4,1505.3,325.9,-0.7,1.8,2470.34,13.32,0.047,113.4
2020-08-22T02:40:03,42.805,6.029,0.034,-0.042,-0.019,104.0,105.0,102.0,13.4,1505.3,324.5,-0.7,1.8,2470.386,13.33,0.054,141.0
2020-08-22T02:43:03,42.805,6.029,0.037,-0.025,-0.02,103.0,106.0,102.0,13.3,1505.3,324.3,-0.7,1.8,2470.356,13.33,0.044,124.0
2020-08-22T02:46:03,42.805,6.029,0.036,-0.027,0.013,106.0,104.0,102.0,13.3,1505.3,325.1,-0.7,1.8,2470.326,13.33,0.045,126.9
2020-08-22T02:49:03,42.805,6.029,0.057,-0.003,0.052,103.0,106.0,101.0,13.3,1505.3,324.0,-0.7,1.8,2470.328,13.33,0.057,93.0
2020-08-22T02:52:03,42.805,6.029,0.03,-0.036,0.023,106.0,103.0,101.0,13.3,1505.3,323.8,-0.7,1.9,2470.338,13.33,0.046,140.2
2020-08-22T02:55:03,42.805,6.029,0.033,-0.039,0.008,105.0,105.0,103.0,13.4,1505.3,325.8,-0.7,1.8,2470.341,13.33,0.051,139.8
2020-08-22T02:58:03,42.805,6.029,0.051,-0.002,0.036,105.0,107.0,102.0,13.4,1505.3,325.1,-0.7,1.9,2470.309,13.33,0.051,92.2
2020-08-22T03:04:03,42.805,6.029,0.003,-0.032,-0.021,103.0,105.0,102.0,13.4,1505.3,326.3,-0.7,1.8,2470.304,13.31,0.032,174.6
2020-08-22T03:07:03,42.805,6.029,0.021,-0.021,-0.02,104.0,106.0,101.0,13.3,1505.3,328.2,-0.7,1.9,2470.368,13.31,0.029,135.0
2020-08-22T03:10:03,42.805,6.029,0.027,-0.023,0.0,105.0,105.0,101.0,13.4,1505.3,326.3,-0.7,1.8,2470.273,13.32,0.035,130.4
2020-08-22T03:13:03,42.805,6.029,0.03,-0.029,0.009,104.0,106.0,102.0,13.3,1505.3,323.3,-0.7,1.8,2470.339,13.32,0.041,134.0
2020-08-22T03:16:03,42.805,6.029,0.006,-0.021,0.0,103.0,106.0,101.0,13.4,1505.3,325.7,-0.7,1.8,2470.336,13.32,0.021,164.1
2020-08-22T03:19:03,42.805,6.029,0.013,-0.023,-0.029,104.0,106.0,101.0,13.4,1505.3,324.8,-0.7,1.8,2470.342,13.32,0.026,150.5
2020-08-22T03:22:03,42.805,6.029,0.021,-0.036,-0.024,102.0,105.0,102.0,13.4,1505.3,325.2,-0.7,1.8,2470.31,13.32,0.041,149.7
2020-08-22T03:25:03,42.805,6.029,0.033,-0.019,-0.037,104.0,107.0,101.0,13.4,1505.3,322.8,-0.7,1.8,2470.275,13.32,0.038,119.9
2020-08-22T03:28:03,42.805,6.029,0.01,-0.04,-0.055,103.0,106.0,101.0,13.3,1505.3,326.3,-0.7,1.8,2470.305,13.32,0.041,166.0
2020-08-22T03:31:03,42.805,6.029,0.015,-0.012,-0.022,104.0,106.0,101.0,13.4,1505.3,324.4,-0.7,1.8,2470.268,13.32,0.019,128.7
2020-08-22T03:34:03,42.805,6.029,0.005,-0.035,-0.011,102.0,106.0,101.0,13.4,1505.3,326.5,-0.7,1.8,2470.312,13.32,0.035,171.9
2020-08-22T03:37:03,42.805,6.029,0.033,-0.028,-0.049,104.0,105.0,101.0,13.3,1505.3,323.2,-0.7,1.8,2470.319,13.32,0.043,130.3
2020-08-22T03:40:03,42.805,6.029,0.029,-0.014,-0.008,104.0,106.0,101.0,13.3,1505.3,328.6,-0.7,1.8,2470.321,13.32,0.032,115.8
2020-08-22T03:43:03,42.805,6.029,0.043,-0.023,0.044,105.0,105.0,103.0,13.4,1505.3,324.9,-0.7,1.8,2470.263,13.32,0.048,118.1
2020-08-22T03:46:03,42.805,6.029,0.042,-0.017,0.022,103.0,106.0,101.0,13.4,1505.3,326.1,-0.7,1.8,2470.354,13.32,0.045,112.0
2020-08-22T03:49:03,42.805,6.029,0.052,-0.032,-0.035,104.0,105.0,102.0,13.4,1505.3,324.6,-0.7,1.8,2470.286,13.32,0.061,121.6
2020-08-22T03:52:03,42.805,6.029,0.033,-0.011,0.006,102.0,106.0,101.0,13.4,1505.3,326.4,-0.7,1.8,2470.294,13.32,0.034,108.4
2020-08-22T03:55:03,42.805,6.029,0.022,-0.021,-0.022,105.0,105.0,101.0,13.4,1505.3,327.9,-0.7,1.8,2470.311,13.33,0.03,133.7
2020-08-22T03:58:03,42.805,6.029,0.038,-0.02,0.007,103.0,106.0,102.0,13.4,1505.3,324.1,-0.7,1.8,2470.302,13.32,0.042,117.8
2020-08-22T04:04:03,42.805,6.029,0.023,-0.014,0.003,102.0,105.0,101.0,13.3,1505.2,328.4,-0.7,1.8,2470.334,13.3,0.026,121.3
2020-08-22T04:07:03,42.805,6.029,0.016,-0.017,-0.033,103.0,106.0,102.0,13.4,1505.3,326.5,-0.7,1.8,2470.331,13.31,0.023,136.7
2020-08-22T04:10:03,42.805,6.029,0.028,-0.007,-0.011,103.0,105.0,101.0,13.4,1505.3,327.7,-0.7,1.8,2470.324,13.32,0.028,104.0
2020-08-22T04:13:03,42.805,6.029,0.015,-0.039,-0.044,104.0,106.0,100.0,13.3,1505.3,324.7,-0.7,1.8,2470.322,13.32,0.041,159.0
2020-08-22T04:16:03,42.805,6.029,0.032,0.004,-0.009,103.0,106.0,101.0,13.4,1505.3,326.9,-0.7,1.8,2470.285,13.32,0.032,82.9
2020-08-22T04:19:03,42.805,6.029,0.007,-0.028,-0.009,105.0,105.0,101.0,13.4,1505.3,326.6,-0.7,1.9,2470.285,13.32,0.028,166.0
2020-08-22T04:25:03,42.805,6.029,0.033,-0.029,0.001,105.0,106.0,101.0,13.4,1505.2,323.3,-0.8,1.8,2470.371,13.3,0.043,131.3
2020-08-22T04:28:03,42.805,6.029,-0.011,-0.018,-0.035,103.0,105.0,101.0,13.4,1505.3,324.1,-0.7,1.8,2470.344,13.31,0.021,211.4
2020-08-22T04:31:03,42.805,6.029,0.029,-0.006,0.001,105.0,105.0,101.0,13.4,1505.3,327.0,-0.7,1.8,2470.327,13.32,0.029,101.7
2020-08-22T04:34:03,42.805,6.029,0.034,-0.02,-0.025,104.0,106.0,100.0,13.3,1505.3,324.4,-0.7,1.9,2470.319,13.32,0.039,120.5
2020-08-22T04:37:03,42.805,6.029,0.031,-0.008,0.007,103.0,106.0,101.0,13.4,1505.3,325.1,-0.7,1.9,2470.358,13.32,0.032,104.5
2020-08-22T04:40:03,42.805,6.029,0.032,-0.024,-0.015,102.0,106.0,102.0,13.4,1505.3,326.7,-0.7,1.8,2470.308,13.32,0.04,126.9
2020-08-22T04:43:03,42.805,6.029,0.036,-0.007,-0.008,103.0,105.0,101.0,13.3,1505.3,326.0,-0.7,1.8,2470.301,13.32,0.036,101.0
2020-08-22T04:46:03,42.805,6.029,0.014,-0.012,-0.004,103.0,105.0,100.0,13.4,1505.3,323.4,-0.7,1.8,2470.321,13.32,0.018,130.6
2020-08-22T04:49:03,42.805,6.029,0.034,-0.022,0.005,103.0,105.0,101.0,13.4,1505.3,328.0,-0.7,1.8,2470.318,13.32,0.04,122.9
2020-08-22T04:52:03,42.805,6.029,0.021,-0.001,0.0,102.0,107.0,101.0,13.4,1505.3,325.8,-0.7,1.8,2470.363,13.32,0.021,92.7
2020-08-22T04:55:03,42.805,6.029,0.039,-0.013,0.017,103.0,106.0,101.0,13.3,1505.3,324.7,-0.7,1.8,2470.311,13.32,0.041,108.4
2020-08-22T04:58:03,42.805,6.029,0.019,-0.017,-0.021,102.0,107.0,101.0,13.4,1505.3,323.3,-0.7,1.9,2470.323,13.32,0.025,131.8
2020-08-22T05:04:03,42.805,6.029,0.03,-0.003,-0.015,104.0,106.0,101.0,13.3,1505.2,326.8,-0.8,1.8,2470.375,13.3,0.03,95.7
2020-08-22T05:07:03,42.805,6.029,0.029,-0.029,-0.007,104.0,104.0,100.0,13.4,1505.3,326.7,-0.7,1.8,2470.301,13.31,0.041,135.0
2020-08-22T05:10:03,42.805,6.029,0.036,-0.001,-0.014,103.0,105.0,100.0,13.4,1505.3,327.1,-0.7,1.9,2470.326,13.32,0.036,91.6
2020-08-22T05:13:03,42.805,6.029,0.039,0.0,0.003,103.0,105.0,101.0,13.4,1505.3,325.1,-0.7,1.8,2470.355,13.32,0.039,90.0
2020-08-22T05:16:03,42.805,6.029,0.051,-0.015,0.008,104.0,104.0,102.0,13.4,1505.3,326.6,-0.7,1.8,2470.35,13.32,0.053,106.4
2020-08-22T05:19:03,42.805,6.029,0.058,-0.031,0.01,103.0,103.0,101.0,13.4,1505.3,322.8,-0.7,1.8,2470.332,13.32,0.065,118.1
2020-08-22T05:22:03,42.805,6.029,0.016,-0.008,-0.009,104.0,104.0,100.0,13.4,1505.3,324.0,-0.7,1.8,2470.316,13.32,0.017,116.6
2020-08-22T05:25:03,42.805,6.029,0.041,0.013,0.023,105.0,106.0,101.0,13.4,1505.3,325.4,-0.7,1.8,2470.331,13.32,0.043,72.4
2020-08-22T05:28:03,42.805,6.029,0.038,-0.023,-0.006,102.0,106.0,101.0,13.4,1505.3,327.0,-0.7,1.8,2470.367,13.32,0.044,121.2
2020-08-22T05:31:03,42.805,6.029,0.036,-0.009,0.005,105.0,104.0,101.0,13.3,1505.3,326.4,-0.7,1.8,2470.321,13.32,0.037,104.0
2020-08-22T05:34:03,42.805,6.029,0.033,-0.029,-0.024,104.0,106.0,101.0,13.4,1505.3,326.6,-0.7,1.8,2470.321,13.32,0.043,131.3
2020-08-22T05:37:03,42.805,6.029,0.037,-0.024,-0.036,103.0,105.0,101.0,13.4,1505.3,325.4,-0.7,1.8,2470.336,13.32,0.044,123.0
2020-08-22T05:40:03,42.805,6.029,0.038,-0.017,-0.023,103.0,106.0,101.0,13.4,1505.3,324.6,-0.7,1.8,2470.342,13.32,0.041,114.1
2020-08-22T05:43:03,42.805,6.029,0.04,-0.017,-0.02,103.0,106.0,100.0,13.3,1505.3,323.1,-0.7,1.8,2470.35,13.32,0.043,113.0
2020-08-22T05:46:03,42.805,6.029,0.019,-0.012,0.004,104.0,104.0,102.0,13.4,1505.3,324.9,-0.7,1.8,2470.33,13.32,0.022,122.3
2020-08-22T05:49:03,42.805,6.029,0.045,-0.02,-0.014,102.0,107.0,100.0,13.4,1505.3,328.3,-0.7,1.8,2470.355,13.32,0.049,114.0
2020-08-22T05:52:03,42.805,6.029,0.035,-0.007,-0.007,103.0,106.0,101.0,13.4,1505.3,324.5,-0.7,1.8,2470.344,13.32,0.035,101.3
2020-08-22T05:55:03,42.805,6.029,0.041,-0.004,0.006,104.0,105.0,102.0,13.4,1505.3,328.2,-0.7,1.9,2470.318,13.32,0.041,95.6
2020-08-22T05:58:03,42.805,6.029,0.038,-0.004,0.006,104.0,106.0,101.0,13.4,1505.3,328.3,-0.7,1.8,2470.357,13.32,0.038,96.0
2020-08-22T06:04:03,42.805,6.029,0.037,0.0,0.004,104.0,107.0,101.0,13.3,1505.2,327.0,-0.7,1.9,2470.388,13.3,0.037,90.0
2020-08-22T06:07:03,42.805,6.029,0.041,-0.004,0.001,106.0,106.0,101.0,13.3,1505.3,325.7,-0.7,1.9,2470.362,13.31,0.041,95.6
2020-08-22T06:10:03,42.805,6.029,0.04,-0.017,-0.011,105.0,105.0,101.0,13.4,1505.3,327.4,-0.7,1.8,2470.406,13.31,0.043,113.0
2020-08-22T06:13:03,42.805,6.029,0.026,-0.009,-0.004,104.0,106.0,101.0,13.3,1505.3,325.4,-0.7,1.8,2470.336,13.32,0.027,109.1
2020-08-22T06:16:03,42.805,6.029,0.032,-0.001,0.002,102.0,106.0,102.0,13.4,1505.3,325.9,-0.7,1.8,2470.363,13.32,0.032,91.8
2020-08-22T06:19:03,42.805,6.029,0.063,-0.006,0.006,103.0,106.0,101.0,13.3,1505.3,325.0,-0.7,1.8,2470.385,13.32,0.063,95.4
2020-08-22T06:22:03,42.805,6.029,0.071,-0.03,0.016,103.0,105.0,101.0,13.3,1505.3,326.4,-0.7,1.8,2470.408,13.32,0.077,112.9
2020-08-22T06:25:03,42.805,6.029,0.049,0.0,-0.023,105.0,105.0,101.0,13.4,1505.3,324.8,-0.7,1.8,2470.392,13.32,0.049,90.0
2020-08-22T06:28:03,42.805,6.029,0.046,-0.022,0.019,105.0,106.0,100.0,13.4,1505.3,326.2,-0.7,1.8,2470.361,13.32,0.05,115.6
2020-08-22T06:31:03,42.805,6.029,0.048,-0.02,0.025,105.0,105.0,101.0,13.3,1505.3,323.6,-0.7,1.8,2470.367,13.32,0.052,112.6
2020-08-22T06:34:03,42.805,6.029,0.029,-0.015,-0.015,104.0,106.0,101.0,13.4,1505.3,323.5,-0.7,1.8,2470.366,13.32,0.032,117.4
2020-08-22T06:37:03,42.805,6.029,0.051,-0.029,0.012,102.0,105.0,102.0,13.4,1505.3,325.7,-0.7,1.8,2470.35,13.32,0.058,119.6
2020-08-22T06:40:03,42.805,6.029,0.032,-0.016,0.018,103.0,104.0,103.0,13.4,1505.3,323.4,-0.7,1.8,2470.361,13.32,0.035,116.6
2020-08-22T06:43:03,42.805,6.029,0.039,-0.006,-0.02,105.0,104.0,100.0,13.4,1505.3,324.9,-0.7,1.9,2470.348,13.32,0.039,98.7
2020-08-22T06:46:03,42.805,6.029,0.046,-0.009,0.01,104.0,107.0,101.0,13.3,1505.3,327.0,-0.7,1.8,2470.366,13.32,0.046,101.1
2020-08-22T06:49:03,42.805,6.029,0.036,-0.009,0.007,104.0,105.0,101.0,13.4,1505.3,322.7,-0.7,1.8,2470.395,13.32,0.037,104.0
2020-08-22T06:52:03,42.805,6.029,0.026,-0.024,0.023,104.0,104.0,102.0,13.4,1505.3,324.7,-0.7,1.8,2470.367,13.32,0.035,132.7
2020-08-22T06:55:03,42.805,6.029,0.033,-0.023,0.009,105.0,104.0,101.0,13.4,1505.3,327.9,-0.7,1.8,2470.345,13.32,0.04,124.9
2020-08-22T06:58:03,42.805,6.029,0.035,-0.008,-0.011,105.0,105.0,101.0,13.3,1505.3,327.9,-0.7,1.8,2470.369,13.32,0.035,102.9
2020-08-22T07:04:03,42.805,6.029,0.057,0.0,0.001,104.0,105.0,100.0,13.4,1505.2,327.8,-0.7,1.8,2470.464,13.3,0.057,90.0
2020-08-22T07:07:03,42.805,6.029,0.026,-0.01,0.01,105.0,105.0,101.0,13.4,1505.3,325.5,-0.7,1.8,2470.407,13.31,0.027,111.0
2020-08-22T07:10:03,42.805,6.029,0.048,-0.014,-0.013,103.0,105.0,101.0,13.4,1505.3,325.9,-0.7,1.8,2470.41,13.31,0.05,106.3
2020-08-22T07:13:03,42.805,6.029,0.045,-0.019,0.0,104.0,106.0,101.0,13.4,1505.3,325.1,-0.7,1.8,2470.422,13.32,0.048,112.9
2020-08-22T07:16:03,42.805,6.029,0.022,-0.017,-0.002,105.0,105.0,101.0,13.4,1505.3,324.8,-0.7,1.8,2470.423,13.32,0.027,127.7
2020-08-22T07:19:03,42.805,6.029,0.037,-0.027,-0.031,105.0,104.0,101.0,13.4,1505.3,324.6,-0.7,1.8,2470.42,13.32,0.045,126.1
2020-08-22T07:22:03,42.805,6.029,0.039,-0.016,-0.011,103.0,105.0,102.0,13.4,1505.3,325.2,-0.7,1.8,2470.392,13.32,0.042,112.3
2020-08-22T07:25:03,42.805,6.029,0.055,-0.005,0.014,102.0,106.0,102.0,13.4,1505.3,323.4,-0.7,1.8,2470.441,13.32,0.055,95.2
2020-08-22T07:28:03,42.805,6.029,0.027,-0.013,-0.052,104.0,105.0,102.0,13.4,1505.3,326.8,-0.7,1.8,2470.431,13.32,0.029,115.7
2020-08-22T07:31:03,42.805,6.029,0.047,-0.031,-0.036,104.0,106.0,101.0,13.4,1505.3,328.3,-0.7,1.8,2470.455,13.32,0.056,123.4
2020-08-22T07:34:03,42.805,6.029,0.063,-0.009,-0.01,104.0,105.0,103.0,13.4,1505.3,326.3,-0.7,1.9,2470.457,13.32,0.063,98.1
2020-08-22T07:37:03,42.805,6.029,0.056,-0.01,0.041,103.0,106.0,102.0,13.4,1505.3,324.7,-0.7,1.9,2470.477,13.32,0.056,100.1
2020-08-22T07:40:03,42.805,6.029,0.044,-0.002,-0.002,103.0,104.0,100.0,13.4,1505.3,326.3,-0.7,1.8,2470.425,13.32,0.044,92.6
2020-08-22T07:43:03,42.805,6.029,0.04,-0.018,-0.017,103.0,105.0,101.0,13.4,1505.3,324.5,-0.7,1.8,2470.46,13.32,0.043,114.2
2020-08-22T07:46:03,42.805,6.029,0.048,-0.034,-0.001,103.0,104.0,101.0,13.4,1505.3,326.3,-0.7,1.8,2470.457,13.32,0.058,125.3
2020-08-22T07:49:03,42.805,6.029,0.048,-0.018,0.017,104.0,103.0,101.0,13.4,1505.3,323.4,-0.7,1.8,2470.439,13.32,0.051,110.6
2020-08-22T07:52:03,42.805,6.029,0.052,-0.018,-0.011,102.0,106.0,102.0,13.4,1505.3,323.0,-0.7,1.8,2470.427,13.32,0.055,109.1
2020-08-22T07:55:03,42.805,6.029,0.034,-0.017,-0.006,105.0,104.0,100.0,13.4,1505.3,326.0,-0.7,1.8,2470.429,13.32,0.038,116.6
2020-08-22T07:58:03,42.805,6.029,0.029,-0.014,-0.011,106.0,104.0,101.0,13.4,1505.3,324.4,-0.7,1.8,2470.46,13.32,0.032,115.8
2020-08-22T08:04:03,42.805,6.029,0.03,-0.019,-0.016,103.0,105.0,101.0,13.4,1505.2,325.1,-0.7,1.8,2470.51,13.3,0.035,122.3
2020-08-22T08:07:03,42.805,6.029,0.032,-0.015,-0.024,102.0,105.0,101.0,13.4,1505.3,324.5,-0.7,1.9,2470.465,13.31,0.035,115.1
2020-08-22T08:10:03,42.805,6.029,0.036,-0.016,-0.014,104.0,106.0,101.0,13.4,1505.3,325.1,-0.7,1.8,2470.502,13.31,0.039,114.0
2020-08-22T08:13:03,42.805,6.029,0.039,-0.009,0.027,103.0,104.0,100.0,13.4,1505.3,327.2,-0.7,1.8,2470.522,13.32,0.04,103.0
2020-08-22T08:16:03,42.805,6.029,0.013,-0.033,-0.012,103.0,106.0,100.0,13.4,1505.3,324.5,-0.7,1.8,2470.516,13.32,0.035,158.5
2020-08-22T08:19:03,42.805,6.029,0.046,-0.005,-0.006,104.0,106.0,100.0,13.4,1505.3,323.7,-0.7,1.8,2470.529,13.32,0.046,96.2
2020-08-22T08:22:03,42.805,6.029,0.027,-0.014,0.026,103.0,106.0,100.0,13.3,1505.3,328.2,-0.7,1.8,2470.486,13.32,0.03,117.4
2020-08-22T08:25:03,42.805,6.029,0.037,-0.028,-0.029,106.0,104.0,109.0,13.4,1505.3,324.0,-0.7,1.8,2470.477,13.32,0.046,127.1
2020-08-22T08:28:03,42.805,6.029,0.043,-0.002,0.001,104.0,107.0,100.0,13.4,1505.3,325.8,-0.7,1.9,2470.469,13.32,0.043,92.7
2020-08-22T08:31:03,42.805,6.029,0.052,-0.016,0.005,105.0,105.0,100.0,13.4,1505.3,324.6,-0.7,1.8,2470.472,13.32,0.054,107.1
2020-08-22T08:34:03,42.805,6.029,0.037,-0.037,-0.005,104.0,106.0,100.0,13.4,1505.3,326.9,-0.7,1.8,2470.477,13.32,0.052,135.0
2020-08-22T08:37:03,42.805,6.029,0.037,-0.012,0.018,103.0,105.0,101.0,13.3,1505.3,326.8,-0.7,1.8,2470.472,13.32,0.038,108.0
2020-08-22T08:40:03,42.805,6.029,0.02,-0.003,-0.007,103.0,105.0,101.0,13.4,1505.3,327.9,-0.7,1.8,2470.438,13.32,0.02,98.5
2020-08-22T08:46:03,42.805,6.029,0.022,-0.002,0.003,104.0,106.0,100.0,13.4,1505.2,324.5,-0.7,1.8,2470.509,13.3,0.022,95.2
2020-08-22T08:49:03,42.805,6.029,0.045,-0.035,-0.011,104.0,106.0,101.0,13.4,1505.3,328.2,-0.8,1.8,2470.494,13.31,0.057,127.9
2020-08-22T08:55:03,42.805,6.029,0.037,-0.016,-0.002,102.0,104.0,102.0,13.3,1505.2,323.0,-0.8,1.8,2470.494,13.3,0.04,113.4
2020-08-22T08:58:03,42.805,6.029,0.032,-0.035,-0.006,105.0,105.0,102.0,13.3,1505.3,322.4,-0.7,1.8,2470.485,13.31,0.047,137.6
2020-08-22T09:04:03,42.805,6.029,0.038,-0.027,0.003,103.0,106.0,101.0,13.3,1505.2,325.0,-0.7,1.8,2470.584,13.3,0.046,125.4
2020-08-22T09:07:03,42.805,6.029,0.036,-0.022,0.009,105.0,106.0,101.0,13.4,1505.3,325.7,-0.7,1.8,2470.518,13.31,0.042,121.4
2020-08-22T09:10:03,42.805,6.029,0.015,-0.015,-0.047,103.0,105.0,101.0,13.4,1505.3,323.4,-0.7,1.9,2470.524,13.31,0.021,135.0
2020-08-22T09:13:03,42.805,6.029,0.042,-0.023,0.009,104.0,106.0,101.0,13.3,1505.3,327.8,-0.7,1.8,2470.508,13.32,0.047,118.7
2020-08-22T09:16:03,42.805,6.029,0.029,-0.039,-0.007,104.0,105.0,101.0,13.4,1505.3,325.7,-0.7,1.9,2470.499,13.32,0.048,143.4
2020-08-22T09:25:03,42.805,6.029,0.028,-0.028,-0.017,103.0,106.0,101.0,13.4,1505.2,327.2,-0.8,1.8,2470.543,13.3,0.039,135.0
2020-08-22T09:28:03,42.805,6.029,0.032,-0.026,0.007,103.0,105.0,101.0,13.3,1505.3,325.7,-0.7,1.8,2470.506,13.31,0.041,129.1
2020-08-22T09:31:03,42.805,6.029,0.025,-0.018,-0.03,105.0,105.0,100.0,13.4,1505.3,325.4,-0.7,1.8,2470.509,13.32,0.03,125.8
2020-08-22T09:34:03,42.805,6.029,0.012,-0.033,0.028,104.0,105.0,100.0,13.3,1505.3,324.9,-0.7,1.8,2470.503,13.32,0.035,160.0
2020-08-22T09:37:03,42.805,6.029,0.042,-0.015,-0.02,104.0,106.0,101.0,13.4,1505.3,326.3,-0.7,1.8,2470.508,13.32,0.044,109.6
2020-08-22T09:40:03,42.805,6.029,0.021,-0.013,0.007,103.0,103.0,102.0,13.4,1505.3,326.4,-0.7,1.8,2470.453,13.32,0.024,121.8
2020-08-22T09:43:03,42.805,6.029,0.03,-0.022,-0.039,104.0,105.0,101.0,13.4,1505.3,325.0,-0.7,1.8,2470.504,13.32,0.037,126.3
2020-08-22T09:46:03,42.805,6.029,0.006,0.004,-0.01,103.0,105.0,101.0,13.4,1505.3,326.5,-0.7,1.8,2470.476,13.32,0.007,56.3
2020-08-22T09:49:03,42.805,6.029,0.037,-0.009,0.006,105.0,105.0,101.0,13.4,1505.3,328.2,-0.7,1.8,2470.446,13.32,0.038,103.7
2020-08-22T09:52:03,42.805,6.029,0.021,-0.012,-0.014,104.0,104.0,100.0,13.4,1505.3,324.1,-0.7,1.8,2470.479,13.32,0.024,119.7
2020-08-22T09:55:03,42.805,6.029,0.055,-0.017,0.006,102.0,105.0,101.0,13.4,1505.3,323.4,-0.7,1.9,2470.473,13.32,0.057,107.2
2020-08-22T09:58:03,42.805,6.029,0.034,-0.017,-0.002,102.0,105.0,100.0,13.3,1505.3,323.0,-0.7,1.8,2470.49,13.32,0.038,116.6
2020-08-22T10:04:03,42.805,6.029,0.014,-0.037,0.001,102.0,103.0,101.0,13.4,1505.2,328.2,-0.7,1.8,2470.486,13.3,0.039,159.3
2020-08-22T10:07:03,42.805,6.029,0.0,-0.015,-0.016,103.0,107.0,101.0,13.4,1505.3,324.5,-0.7,1.8,2470.492,13.31,0.015,180.0
2020-08-22T10:10:03,42.805,6.029,0.026,-0.033,-0.032,103.0,106.0,100.0,13.4,1505.3,326.5,-0.7,1.9,2470.49,13.32,0.042,141.8
2020-08-22T10:13:03,42.805,6.029,0.051,-0.021,0.02,103.0,105.0,101.0,13.3,1505.3,327.2,-0.7,1.8,2470.463,13.32,0.055,112.4